When you browse on this site, cookies collect data to enhance your experience and personalize the content and advertising you see.
Visit our Privacy Policy to learn more. By continuing to use the site, you agree to this use of cookies and data.
  • In Hungary
  • List of Countries
  • For 7 days
  • Water Temperature
  • Satellite Maps
  • Weather Map
  • News
  • Weather Widgets
  • user-avatar
    Login

    Hourly Weather Krzywin

    Today, 26 June, Wednesday

    Time Temperature Precipitation Wind Pressure Humidity
    00:00 +25°C° 0 mm 3 mps 759 mmHg 82%
    01:00 +24°C° 0 mm 2 mps 759 mmHg 84%
    02:00 +24°C° 0 mm 2 mps 759 mmHg 85%
    03:00 +24°C° 0 mm 2 mps 759 mmHg 86%
    04:00 +22°C° 0 mm 3 mps 759 mmHg 87%
    05:00 +25°C° 0 mm 3 mps 759 mmHg 83%
    06:00 +26°C° 0 mm 3 mps 759 mmHg 79%
    07:00 +28°C° 0 mm 3 mps 759 mmHg 76%
    08:00 +29°C° 0 mm 3 mps 759 mmHg 69%
    09:00 +31°C° 0 mm 3 mps 758 mmHg 63%
    10:00 +33°C° 0 mm 3 mps 758 mmHg 57%
    11:00 +35°C° 0 mm 3 mps 758 mmHg 53%
    12:00 +36°C° 0 mm 3 mps 758 mmHg 50%
    13:00 +37°C° 0 mm 4 mps 758 mmHg 46%
    14:00 +37°C° 0 mm 4 mps 757 mmHg 45%
    15:00 +37°C° 0 mm 4 mps 757 mmHg 45%
    16:00 +37°C° 0 mm 4 mps 756 mmHg 45%
    17:00 +36°C° 0 mm 4 mps 756 mmHg 49%
    18:00 +34°C° 0 mm 3 mps 756 mmHg 54%
    19:00 +33°C° 0 mm 3 mps 756 mmHg 59%
    20:00 +30°C° 0.3 mm 3 mps 756 mmHg 67%
    21:00 +28°C° 0.3 mm 3 mps 756 mmHg 75%
    22:00 +25°C° 0.3 mm 4 mps 756 mmHg 82%
    23:00 +23°C° 0 mm 4 mps 757 mmHg 84%

    Tomorrow, 27 June, Thursday

    Time Temperature Precipitation Wind Pressure Humidity
    00:00 +22°C° 0 mm 4 mps 757 mmHg 87%
    01:00 +21°C° 0 mm 4 mps 757 mmHg 89%
    02:00 +20°C° 0 mm 5 mps 757 mmHg 88%
    03:00 +19°C° 0 mm 5 mps 757 mmHg 87%
    04:00 +17°C° 0 mm 5 mps 757 mmHg 87%
    05:00 +17°C° 0 mm 6 mps 758 mmHg 82%
    06:00 +16°C° 0 mm 6 mps 758 mmHg 78%
    07:00 +16°C° 0 mm 6 mps 758 mmHg 73%
    08:00 +17°C° 0 mm 7 mps 758 mmHg 67%
    09:00 +18°C° 0 mm 7 mps 758 mmHg 61%
    10:00 +21°C° 0 mm 7 mps 758 mmHg 54%
    11:00 +21°C° 0 mm 7 mps 758 mmHg 53%
    12:00 +22°C° 0 mm 7 mps 758 mmHg 51%
    13:00 +23°C° 0 mm 7 mps 758 mmHg 50%
    14:00 +23°C° 0 mm 7 mps 758 mmHg 52%
    15:00 +23°C° 0 mm 7 mps 758 mmHg 54%
    16:00 +23°C° 0 mm 7 mps 757 mmHg 56%
    17:00 +22°C° 0 mm 6 mps 757 mmHg 61%
    18:00 +21°C° 0 mm 5 mps 757 mmHg 67%
    19:00 +20°C° 0 mm 4 mps 757 mmHg 72%
    20:00 +19°C° 0 mm 4 mps 758 mmHg 78%
    21:00 +17°C° 0 mm 3 mps 758 mmHg 83%
    22:00 +16°C° 0 mm 3 mps 759 mmHg 88%
    23:00 +16°C° 0 mm 2 mps 759 mmHg 85%

    Day after tomorrow, 28 June, Friday

    Time Temperature Precipitation Wind Pressure Humidity
    00:00 +17°C° 0 mm 2 mps 759 mmHg 83%
    01:00 +17°C° 0 mm 2 mps 759 mmHg 80%
    02:00 +17°C° 0.1 mm 2 mps 759 mmHg 84%
    03:00 +16°C° 0.1 mm 2 mps 759 mmHg 88%
    04:00 +16°C° 0.1 mm 2 mps 759 mmHg 91%
    05:00 +17°C° 0.3 mm 2 mps 759 mmHg 90%
    06:00 +17°C° 0.3 mm 3 mps 759 mmHg 90%
    07:00 +18°C° 0.3 mm 4 mps 759 mmHg 89%
    08:00 +19°C° 0.2 mm 4 mps 759 mmHg 81%
    09:00 +21°C° 0.2 mm 4 mps 759 mmHg 74%
    10:00 +22°C° 0.2 mm 5 mps 759 mmHg 67%
    11:00 +23°C° 0.1 mm 5 mps 759 mmHg 61%
    12:00 +25°C° 0.1 mm 5 mps 759 mmHg 56%
    13:00 +26°C° 0.1 mm 5 mps 758 mmHg 50%
    14:00 +26°C° 0 mm 5 mps 759 mmHg 50%
    15:00 +26°C° 0 mm 5 mps 759 mmHg 50%
    16:00 +26°C° 0 mm 5 mps 759 mmHg 50%
    17:00 +23°C° 0 mm 4 mps 759 mmHg 52%
    18:00 +22°C° 0 mm 4 mps 759 mmHg 54%
    19:00 +20°C° 0 mm 4 mps 759 mmHg 56%
    20:00 +19°C° 0 mm 3 mps 759 mmHg 58%
    21:00 +17°C° 0 mm 3 mps 760 mmHg 59%
    22:00 +16°C° 0 mm 2 mps 760 mmHg 61%
    23:00 +15°C° 0 mm 2 mps 760 mmHg 63%

    29 June, Saturday

    Time Temperature Precipitation Wind Pressure Humidity
    00:00 +15°C° 0 mm 1 mps 760 mmHg 64%
    01:00 +14°C° 0 mm 1 mps 760 mmHg 66%
    02:00 +13°C° 0 mm 1 mps 760 mmHg 68%
    03:00 +12°C° 0 mm 0 mps 760 mmHg 70%
    04:00 +12°C° 0 mm 0 mps 760 mmHg 73%
    05:00 +14°C° 0 mm 0 mps 760 mmHg 68%
    06:00 +18°C° 0 mm 1 mps 760 mmHg 64%
    07:00 +19°C° 0 mm 1 mps 760 mmHg 59%
    08:00 +21°C° 0 mm 1 mps 760 mmHg 55%
    09:00 +23°C° 0 mm 1 mps 760 mmHg 50%
    10:00 +24°C° 0 mm 2 mps 760 mmHg 45%
    11:00 +25°C° 0 mm 2 mps 759 mmHg 42%
    12:00 +26°C° 0 mm 2 mps 759 mmHg 39%
    13:00 +27°C° 0 mm 2 mps 759 mmHg 36%
    14:00 +27°C° 0 mm 2 mps 758 mmHg 36%
    15:00 +27°C° 0 mm 2 mps 758 mmHg 36%
    16:00 +28°C° 0 mm 2 mps 758 mmHg 36%
    17:00 +27°C° 0 mm 1 mps 758 mmHg 41%
    18:00 +26°C° 0 mm 1 mps 757 mmHg 46%
    19:00 +24°C° 0 mm 1 mps 757 mmHg 52%
    20:00 +23°C° 0 mm 1 mps 757 mmHg 54%
    21:00 +21°C° 0 mm 1 mps 757 mmHg 56%
    22:00 +19°C° 0 mm 2 mps 758 mmHg 58%
    23:00 +18°C° 0 mm 2 mps 757 mmHg 62%

    30 June, Sunday

    Time Temperature Precipitation Wind Pressure Humidity
    00:00 +18°C° 0 mm 2 mps 757 mmHg 65%
    01:00 +17°C° 0 mm 2 mps 757 mmHg 68%
    02:00 +17°C° 0 mm 2 mps 757 mmHg 70%
    03:00 +17°C° 0 mm 2 mps 757 mmHg 73%
    04:00 +16°C° 0 mm 2 mps 756 mmHg 75%
    05:00 +18°C° 0 mm 2 mps 756 mmHg 71%
    06:00 +20°C° 0 mm 2 mps 756 mmHg 67%
    07:00 +23°C° 0 mm 2 mps 756 mmHg 63%
    08:00 +25°C° 0 mm 3 mps 756 mmHg 58%
    09:00 +27°C° 0 mm 3 mps 756 mmHg 52%
    10:00 +29°C° 0 mm 4 mps 756 mmHg 47%
    11:00 +30°C° 0 mm 4 mps 755 mmHg 45%
    12:00 +32°C° 0 mm 5 mps 755 mmHg 43%
    13:00 +33°C° 0 mm 5 mps 754 mmHg 41%
    14:00 +33°C° 0 mm 5 mps 754 mmHg 41%
    15:00 +33°C° 0 mm 5 mps 754 mmHg 42%
    16:00 +33°C° 0 mm 5 mps 753 mmHg 42%
    17:00 +32°C° 0 mm 5 mps 753 mmHg 48%
    18:00 +29°C° 0 mm 5 mps 753 mmHg 53%
    19:00 +28°C° 0 mm 4 mps 752 mmHg 58%
    20:00 +27°C° 0 mm 4 mps 753 mmHg 61%
    21:00 +26°C° 0 mm 4 mps 753 mmHg 64%
    22:00 +23°C° 0 mm 5 mps 753 mmHg 67%
    23:00 +23°C° 0 mm 4 mps 753 mmHg 70%

    1 July, Monday

    Time Temperature Precipitation Wind Pressure Humidity
    00:00 +22°C° 0 mm 4 mps 753 mmHg 74%
    01:00 +21°C° 0 mm 3 mps 753 mmHg 77%
    02:00 +20°C° 0 mm 3 mps 753 mmHg 79%
    03:00 +20°C° 0 mm 3 mps 754 mmHg 81%
    04:00 +19°C° 0 mm 2 mps 754 mmHg 83%
    05:00 +20°C° 0 mm 2 mps 754 mmHg 75%
    06:00 +20°C° 0 mm 2 mps 754 mmHg 67%
    07:00 +21°C° 0 mm 2 mps 754 mmHg 60%
    08:00 +22°C° 0 mm 3 mps 754 mmHg 59%
    09:00 +24°C° 0 mm 3 mps 754 mmHg 58%
    10:00 +26°C° 0 mm 3 mps 754 mmHg 56%
    11:00 +26°C° 0 mm 3 mps 754 mmHg 56%
    12:00 +27°C° 0 mm 3 mps 753 mmHg 55%
    13:00 +28°C° 0 mm 3 mps 753 mmHg 55%
    14:00 +28°C° 0 mm 4 mps 752 mmHg 53%
    15:00 +29°C° 0 mm 4 mps 752 mmHg 51%
    16:00 +29°C° 0 mm 5 mps 751 mmHg 49%
    17:00 +28°C° 0 mm 4 mps 751 mmHg 53%
    18:00 +26°C° 0 mm 4 mps 751 mmHg 56%
    19:00 +25°C° 0 mm 3 mps 751 mmHg 60%
    20:00 +22°C° 0 mm 3 mps 751 mmHg 61%
    21:00 +21°C° 0 mm 3 mps 751 mmHg 62%
    22:00 +19°C° 0 mm 3 mps 752 mmHg 62%
    23:00 +19°C° 0 mm 4 mps 752 mmHg 68%
    Show more